This is the latest recevied weather packets stored in our database for station/object SR9SMR. If no packets are shown the sender has not sent any weather packets the latest 1 day(s).
| Time | Temp. | Humidity | Pressure | Rain* | Wind** | Luminosity | Snow |
|---|---|---|---|---|---|---|---|
| 1777982672 | 17.22° C | 100% | 896 hPa | - | 8.49 m/s, 212° | - | - |
| 1777982551 | 17.22° C | 100% | 895.9 hPa | - | 8.94 m/s, 218° | - | - |
| 1777982430 | 17.22° C | 100% | 896 hPa | - | 8.94 m/s, 212° | - | - |
| 1777982309 | 17.22° C | 100% | 895.9 hPa | - | 8.94 m/s, 204° | - | - |
| 1777982250 | 17.22° C | 100% | 896.1 hPa | - | 8.49 m/s, 204° | - | - |
| 1777982188 | 17.22° C | 100% | 896.2 hPa | - | 8.49 m/s, 206° | - | - |
| 1777982068 | 17.22° C | 100% | 896.2 hPa | - | 8.94 m/s, 212° | - | - |
| 1777981947 | 17.22° C | 100% | 896 hPa | - | 9.83 m/s, 212° | - | - |
| 1777981825 | 17.22° C | 100% | 896 hPa | - | 10.28 m/s, 212° | - | - |
| 1777981704 | 17.22° C | 100% | 895.9 hPa | - | 10.28 m/s, 213° | - | - |
| 1777981645 | 17.22° C | 100% | 895.9 hPa | - | 10.28 m/s, 218° | - | - |
| 1777981583 | 17.22° C | 100% | 895.9 hPa | - | 10.28 m/s, 223° | - | - |
| 1777981463 | 17.22° C | 100% | 896 hPa | - | 10.28 m/s, 229° | - | - |
| 1777981342 | 17.22° C | 100% | 895.8 hPa | - | 9.83 m/s, 218° | - | - |
| 1777981221 | 17.22° C | 100% | 895.7 hPa | - | 10.28 m/s, 206° | - | - |
| 1777981099 | 17.22° C | 100% | 895.5 hPa | - | 10.73 m/s, 210° | - | - |
| 1777981039 | 17.22° C | 100% | 895.3 hPa | - | 10.28 m/s, 208° | - | - |
| 1777980898 | 17.22° C | 100% | 895.4 hPa | - | 10.28 m/s, 210° | - | - |
| 1777980777 | 17.78° C | 100% | 895.6 hPa | - | 10.28 m/s, 209° | - | - |
| 1777980656 | 17.78° C | 100% | 895.8 hPa | - | 10.28 m/s, 208° | - | - |
| 1777980595 | 17.78° C | 100% | 895.8 hPa | - | 9.83 m/s, 210° | - | - |
| 1777980575 | 17.78° C | 100% | 896.7 hPa | - | 9.39 m/s, 212° | - | - |
| 1777980460 | 18.33° C | 100% | 896.7 hPa | - | 9.39 m/s, 212° | - | - |
| 1777980399 | 17.78° C | 100% | 896.7 hPa | - | 9.39 m/s, 212° | - | - |
| 1777980337 | 17.78° C | 100% | 896.6 hPa | - | 9.39 m/s, 211° | - | - |
* Rain since midnight (hover to see other rain measurements)
** Current wind speed in m/s (hover to see current wind gust speed)